Theta_e
310 311 309 310 311 314 314 316 317 317 315 316 316 316 314 312 311 309 308 306 306 305 304 304 303 301 300 299 298 297 295 295 293 293 293 293 293 293 293 293 293 293 293 293
310 310 310 310 310 312 313 313 314 314 315 314 315 314 313 311 309 308 307 306 305 305 305 304 303 302 301 300 298 297 295 295 293 293 293 293 293 293 293 293 292 292 292 292
310 310 310 311 311 310 312 312 313 314 314 313 314 314 311 309 309 308 308 306 306 306 306 305 305 304 302 301 298 297 295 294 292 293 292 292 292 292 292 292 292 291 291 291
309 308 313 312 311 310 310 311 311 311 313 314 315 314 312 310 309 308 308 306 306 307 307 306 305 303 302 300 298 297 295 294 292 292 292 292 292 292 292 291 291 291 291 290
310 309 310 310 309 310 310 311 310 311 312 312 313 313 312 310 309 309 308 308 307 308 307 306 305 303 301 299 298 296 295 293 292 292 292 292 292 292 291 291 291 290 290 290
308 310 312 312 309 307 309 311 312 310 311 312 311 314 313 310 309 308 308 307 308 308 307 306 305 303 301 300 298 296 295 293 292 292 292 291 291 291 291 291 290 290 291 291
306 309 310 308 310 308 311 313 311 309 309 310 312 313 312 313 310 308 308 307 308 308 308 307 305 302 301 300 297 296 295 292 292 292 291 291 291 291 290 290 290 290 291 291
306 308 310 308 306 311 312 308 310 308 309 308 310 311 312 312 310 307 306 306 307 308 307 306 304 302 301 299 297 295 294 292 292 292 291 291 291 290 290 290 290 290 290 290
308 308 308 305 308 308 309 309 309 307 308 308 309 310 311 310 308 307 307 307 307 308 308 305 304 303 301 299 296 295 293 292 292 291 291 290 290 290 290 290 290 290 290 289
299 307 304 299 302 302 302 304 306 308 308 308 308 309 309 309 307 306 305 305 305 306 307 305 303 302 301 299 296 294 292 292 291 291 290 290 290 290 289 289 289 289 288 288
295 296 299 303 300 296 297 300 302 304 306 308 308 308 308 308 307 305 305 304 305 307 307 305 303 302 300 297 295 293 292 292 291 290 290 290 290 289 289 289 288 288 287 287
294 295 294 294 294 295 297 298 299 303 304 307 307 308 308 307 307 305 303 303 304 305 306 305 303 301 298 295 294 293 291 291 290 290 290 290 289 289 288 288 287 287 286 285
290 290 291 292 293 296 296 298 301 300 302 305 307 307 307 307 306 304 303 304 304 305 306 305 303 300 296 295 294 292 292 291 290 290 290 289 289 288 288 287 286 285 285 284
290 291 293 294 296 295 295 296 296 298 301 304 305 306 306 305 303 303 303 304 304 305 305 304 302 298 296 294 293 291 291 291 290 290 290 289 288 288 287 286 285 285 284 284
290 291 291 292 293 294 295 296 296 297 302 303 305 305 305 304 303 302 302 302 303 304 304 303 300 297 295 293 292 291 291 290 290 290 289 289 288 287 286 285 285 284 283 283
288 290 291 291 294 295 295 295 295 300 303 303 304 305 306 305 303 301 300 301 302 302 303 302 299 297 294 293 292 291 290 290 290 290 289 289 288 287 286 285 284 284 283 283
288 289 289 290 291 293 294 295 298 302 303 303 304 305 304 302 300 299 300 301 304 305 304 302 299 296 294 293 292 291 290 290 290 289 289 289 288 287 286 285 284 284 283 283
288 289 289 291 293 295 295 298 302 304 304 304 304 304 303 302 300 299 299 299 301 303 302 300 298 295 294 292 291 291 291 290 290 289 289 288 288 287 286 285 284 284 284 283
289 290 292 293 293 294 295 300 303 304 304 303 303 303 303 302 302 300 299 300 302 302 299 298 297 295 293 292 291 291 291 290 290 289 288 288 288 287 286 285 284 284 283 283
290 290 292 293 293 295 299 301 302 303 303 303 303 302 301 300 300 300 300 302 303 303 301 298 297 294 293 292 291 291 290 290 290 289 289 288 288 287 286 285 284 283 283 282
291 291 291 292 293 297 300 301 302 302 303 302 303 302 302 300 300 300 299 300 300 302 300 298 296 294 293 292 291 290 290 290 289 289 289 288 288 287 286 284 283 283 282 282
292 292 292 293 295 299 300 300 301 302 303 302 301 301 301 300 299 299 302 304 302 300 299 298 296 294 293 292 291 291 290 290 289 289 288 288 288 288 286 285 283 283 282 281
293 293 294 295 297 297 299 301 302 302 302 302 301 301 301 301 301 300 298 300 301 300 299 299 297 294 293 292 291 291 290 290 290 289 289 288 288 288 286 285 284 283 282 281
296 296 297 298 300 301 302 302 302 302 302 303 302 302 302 299 297 299 302 303 301 300 299 299 297 294 293 292 291 291 290 290 290 289 288 288 287 287 286 285 284 283 282 281
301 301 302 303 304 302 301 301 300 300 299 301 299 300 302 304 306 303 302 302 301 300 299 298 296 293 293 292 291 291 290 290 290 289 289 289 288 287 286 285 285 283 282 281
301 303 301 303 305 302 301 300 300 299 299 299 298 299 301 302 303 303 301 301 300 300 298 297 294 293 293 292 291 290 290 290 290 290 290 289 288 287 286 285 284 284 282 281
301 302 302 302 302 300 299 299 299 299 300 301 302 301 301 302 301 301 301 300 300 299 297 296 294 293 293 292 291 290 290 290 290 290 290 289 289 288 287 286 284 284 283 281
Wind_Speed
13 17 8 6 16 14 13 21 12 15 10 11 13 17 28 30 33 37 39 42 49 47 44 40 35 30 25 20 17 13 10 8 7 7 7 7 8 9 10 11 13 15 16 17
9 12 13 12 14 17 21 21 19 12 14 3 16 14 21 31 38 40 43 47 48 50 46 43 37 32 26 21 18 14 11 9 9 8 7 7 7 8 9 11 12 13 15 16
5 6 7 8 19 19 17 16 16 16 10 7 10 16 26 32 41 46 48 49 53 56 51 45 39 33 29 24 19 15 12 11 11 9 8 7 7 7 9 10 11 12 14 16
6 5 9 15 12 19 20 15 18 8 12 16 16 33 38 43 47 48 48 49 53 57 51 45 39 35 29 25 21 18 16 14 12 11 8 7 7 7 8 8 9 11 13 15
4 7 10 6 6 10 13 22 9 16 12 18 21 19 21 34 42 50 57 59 61 59 52 48 42 37 32 28 24 21 17 15 13 11 9 7 6 6 6 8 9 10 13 15
5 4 8 18 8 3 4 15 12 16 16 17 19 11 9 34 42 43 47 52 58 57 54 48 44 39 35 31 26 23 18 15 14 12 9 7 6 5 5 6 8 10 12 14
15 9 11 5 6 17 9 9 9 24 24 26 16 23 33 35 44 45 51 54 58 58 55 50 46 43 38 32 27 21 19 17 16 13 9 7 5 4 4 6 8 9 11 14
14 13 17 6 1 16 14 9 4 8 22 26 35 26 32 39 47 48 51 53 59 59 56 52 48 45 38 32 27 23 20 19 17 13 10 7 5 4 4 5 7 9 11 13
5 14 3 6 8 21 16 10 12 6 9 20 25 31 33 37 45 52 55 56 59 61 57 54 50 44 39 33 29 25 22 20 18 14 11 8 6 3 3 4 6 9 11 13
11 14 9 23 25 14 28 28 28 20 15 14 22 28 33 36 44 48 51 55 58 59 59 57 51 44 35 31 28 26 24 22 19 15 12 9 6 4 3 4 6 9 11 14
20 26 24 20 11 36 42 38 37 33 26 20 22 25 31 38 44 47 53 55 60 61 60 57 52 44 36 32 30 28 26 24 21 17 13 10 7 4 3 3 6 8 11 13
16 19 22 38 47 46 40 39 41 33 31 27 23 28 32 42 47 50 50 54 59 60 60 57 51 44 38 34 31 30 29 26 22 18 14 11 7 5 3 3 6 8 9 11
42 43 42 49 55 46 40 36 33 43 35 33 28 27 34 43 47 48 50 58 60 62 60 56 51 45 39 35 32 31 29 27 23 18 15 11 9 6 3 2 4 5 6 8
41 34 38 37 42 48 44 43 47 40 37 29 33 31 34 42 44 50 55 58 60 61 60 56 50 45 39 36 33 31 28 25 21 18 16 12 10 7 5 4 3 3 4 6
43 39 49 44 45 51 47 42 44 41 35 28 32 31 36 42 47 51 52 56 59 60 59 54 50 45 40 37 35 34 31 28 23 19 16 13 10 9 7 6 5 4 4 4
47 48 44 40 43 45 47 45 40 39 31 29 33 33 37 42 47 48 52 59 61 62 59 54 49 44 41 39 37 34 31 26 23 20 17 14 12 9 7 6 6 5 4 3
42 45 48 46 49 50 50 43 40 38 34 32 40 38 38 42 43 47 53 58 59 61 57 52 48 44 41 40 38 35 32 29 24 21 17 15 12 10 9 8 6 5 3 2
52 54 48 46 47 42 41 39 39 39 37 36 39 41 42 46 50 51 54 56 59 58 54 50 45 43 42 40 38 35 32 28 25 21 18 16 14 11 10 8 7 5 2 1
55 51 49 47 50 44 43 41 40 36 35 36 42 46 46 48 51 53 55 60 61 58 54 48 44 42 42 40 38 34 31 29 25 23 20 17 14 12 10 9 7 5 3 1
57 56 52 53 51 42 40 41 38 39 36 38 42 46 48 50 51 54 58 63 61 55 51 47 44 42 41 39 37 35 31 28 25 23 20 18 15 12 11 9 8 6 4 2
53 53 56 57 51 45 44 42 40 39 37 40 45 50 50 51 52 54 60 60 57 51 48 47 44 43 41 39 37 34 31 29 26 23 21 18 16 13 12 10 9 7 6 4
49 51 52 49 44 44 44 46 43 38 39 42 45 48 49 51 52 55 59 61 56 50 48 46 44 42 41 39 37 34 31 28 25 23 22 19 17 14 12 11 10 9 7 5
40 43 42 37 40 45 40 39 39 42 41 45 48 50 50 53 55 61 55 52 54 51 49 45 42 41 39 38 36 34 31 29 26 24 21 19 17 15 13 12 11 9 8 7
30 32 33 35 35 31 30 33 38 38 41 40 46 47 50 52 49 50 52 51 51 50 49 44 40 39 40 38 36 33 30 28 25 23 21 19 18 16 14 13 11 10 9 8
26 27 25 25 15 18 23 30 33 34 38 39 46 46 47 48 48 50 46 46 47 47 45 42 39 40 39 36 34 32 30 27 25 23 22 20 18 16 15 13 12 11 10 10
22 18 15 17 16 20 27 29 37 38 40 43 45 48 49 48 44 45 44 43 44 46 44 43 41 41 38 35 33 31 29 27 25 23 20 19 18 17 15 14 13 12 12 11
17 20 15 21 15 22 29 35 39 40 42 47 50 49 47 43 41 42 43 41 43 45 44 42 41 39 36 34 32 29 27 26 24 21 20 19 18 17 16 14 14 14 14 14
Wind_Direction
246 233 206 205 199 189 205 225 213 223 216 197 192 187 189 179 172 174 178 180 186 184 184 184 182 181 178 178 175 173 168 159 152 139 119 103 90 75 63 53 46 41 36 33
268 246 222 227 220 207 215 221 226 215 218 221 199 178 173 177 175 180 183 184 185 186 186 186 185 184 183 183 181 178 173 169 164 146 130 116 93 78 63 53 47 41 34 32
275 249 202 253 221 214 224 225 221 214 208 160 173 179 181 182 186 187 188 185 186 189 189 188 188 190 187 185 183 181 181 177 167 155 143 122 102 82 67 57 46 38 33 30
284 274 214 245 212 214 219 222 209 190 186 188 196 196 192 195 190 190 189 186 187 191 191 190 190 190 187 188 186 187 184 181 172 161 150 135 111 89 72 59 44 36 29 26
255 230 272 268 212 195 211 248 213 202 200 197 206 202 212 201 197 195 194 192 191 192 191 191 191 190 189 188 188 189 186 182 173 165 160 143 118 95 72 56 42 34 27 23
210 226 228 242 219 156 130 257 236 203 206 198 164 197 206 199 202 195 193 191 192 193 193 192 191 189 190 191 190 189 186 182 176 173 165 147 129 105 77 56 42 32 23 20
217 240 268 259 215 158 212 260 232 194 205 199 193 214 212 211 207 201 195 192 195 195 194 192 191 189 191 192 190 187 185 183 179 174 167 157 142 116 79 54 39 29 21 18
218 214 252 235 197 184 219 158 260 205 218 202 214 220 216 210 198 189 188 189 197 194 193 192 191 190 191 190 187 188 185 183 180 176 172 168 157 130 87 54 38 28 23 18
242 214 224 305 278 245 259 232 266 232 250 240 222 220 215 203 188 189 191 195 196 195 191 191 192 193 189 188 189 186 184 184 181 178 177 174 162 139 89 55 36 28 23 19
338 261 300 303 304 354 355 342 310 280 275 270 243 241 221 199 187 185 186 190 189 192 190 187 190 191 192 190 188 186 185 184 181 180 179 174 166 148 104 59 35 28 23 21
292 289 300 262 302 329 324 327 331 323 287 270 259 242 221 199 193 187 188 188 190 193 191 189 187 187 188 191 186 184 185 183 182 181 179 177 170 155 118 68 39 31 25 22
259 282 311 297 300 307 308 311 320 320 305 281 258 243 219 201 198 192 185 187 191 192 190 188 185 185 186 187 187 186 182 183 183 180 178 177 172 166 131 56 39 33 29 25
258 270 276 279 288 288 296 302 301 310 304 277 260 239 222 205 198 193 189 191 189 190 190 186 184 184 184 184 185 185 185 182 180 180 180 178 173 168 154 94 56 43 31 26
254 269 267 263 272 283 289 292 297 299 301 279 259 234 216 202 193 192 193 194 193 191 188 185 184 183 183 183 182 182 184 183 180 180 179 177 174 170 159 136 110 79 55 36
257 260 257 263 269 274 281 289 292 294 296 276 251 231 212 200 198 195 191 188 190 190 185 183 184 182 182 181 181 181 180 180 181 181 179 177 176 171 163 151 140 122 85 53
244 244 258 267 267 269 275 279 282 282 280 264 238 222 218 215 202 189 186 188 186 184 184 184 183 182 180 180 180 180 181 181 181 181 180 180 178 175 169 160 152 140 123 95
234 234 241 249 256 263 265 271 271 271 267 248 241 225 208 198 188 184 188 193 191 186 185 184 183 181 181 181 181 180 179 178 181 181 182 182 181 179 177 174 169 154 128 76
232 238 235 239 247 250 262 268 268 275 252 251 236 220 206 198 192 189 188 184 185 183 182 183 182 180 181 181 182 181 181 181 181 183 184 185 185 183 183 181 176 168 146 86
233 234 234 233 242 246 254 256 266 280 261 238 227 216 208 203 200 195 189 186 184 181 182 182 182 182 182 182 182 182 181 182 183 184 186 187 187 187 187 186 184 181 176 175
228 227 229 237 244 242 242 248 259 269 253 231 222 208 201 198 196 193 190 187 186 184 182 179 182 184 183 182 182 183 183 185 187 188 188 188 189 189 189 190 190 190 195 203
220 222 227 234 240 240 237 244 253 252 234 227 218 208 201 197 196 191 184 182 183 185 182 179 182 184 184 182 183 185 186 187 188 191 190 190 189 192 193 194 196 200 206 213
217 220 227 229 230 234 240 247 253 235 229 220 211 204 198 194 191 190 187 186 182 183 181 182 184 185 185 184 185 187 188 189 191 191 192 192 192 196 197 199 202 208 213 219
215 220 225 226 230 240 246 248 236 226 220 210 205 201 199 195 190 183 181 187 184 181 183 185 186 187 185 187 188 189 190 192 193 194 195 194 196 199 201 204 209 214 218 225
216 218 220 224 229 228 229 225 222 219 215 209 207 201 194 187 182 186 188 187 187 184 187 188 187 187 188 190 190 191 192 193 194 194 194 197 201 203 205 209 214 219 223 231
186 195 204 197 203 231 221 213 206 204 201 198 200 194 192 190 185 185 190 190 186 187 188 189 189 188 191 191 192 193 194 194 195 196 198 202 205 208 210 214 220 225 231 238
181 173 199 199 204 226 214 204 197 194 191 190 191 188 186 186 187 186 188 189 187 190 191 188 188 191 192 192 193 194 194 194 195 198 201 204 207 212 217 220 226 232 237 244
183 178 183 182 190 206 206 197 191 186 191 191 186 186 185 185 186 189 188 186 189 190 190 188 189 193 193 192 193 193 194 195 198 200 202 206 211 217 221 226 232 239 244 247